Regional Weather Roundup
Issued by NWS Sioux Falls, SD

Home | Current Version | Previous Version | Graphics & Text | Print | Product List | Glossary On
Versions: 1 2 3 4 5 6 7 8 9 10 11 12 13 14 15 16 17 18 19 20 21 22 23 24 25 26 27 28 29 30 31 32 33 34 35 36 37 38 39 40 41 42 43 44 45 46 47 48 49 50
000
ASUS43 KFSD 300010
RWRFSD

WEATHER ROUNDUP FOR SE SOUTH DAKOTA/SW MINNESOTA/NW IOWA
NATIONAL WEATHER SERVICE SIOUX FALLS SD
700 PM CDT TUE JUL 29 2014

NOTE: "FAIR" INDICATES FEW OR NO CLOUDS BELOW 12,000 FEET WITH NO
SIGNIFICANT WEATHER AND OR OBSTRUCTIONS TO VISIBILITY.


SDZ038>040-050-052>070-300100-
SOUTHEAST SOUTH DAKOTA

CITY           SKY/WX    TMP DP  RH WIND       PRES   REMARKS
CHAMBERLAIN    MOSUNNY   78  51  39 CALM      30.13F
6HR MIN TEMP:  74; 6HR MAX TEMP:  80;

HURON          SUNNY     77  52  41 N7        30.11F
6HR MIN TEMP:  73; 6HR MAX TEMP:  79;

MADISON        FAIR      72  54  53 N5        30.14F
MITCHELL       SUNNY     77  52  41 N9        30.12F
6HR MIN TEMP:  73; 6HR MAX TEMP:  79;

SIOUX FALLS    MOSUNNY   75  55  49 N6        30.13F
6HR MIN TEMP:  71; 6HR MAX TEMP:  76;

WINNER         FAIR      81  46  29 N6        30.14F
YANKTON        MOSUNNY   75  52  43 N7        30.13
$$

MNZ071-072-080-081-089-090-097-098-300100-
SOUTHWEST MINNESOTA

CITY           SKY/WX    TMP DP  RH WIND       PRES   REMARKS
FAIRMONT       SUNNY     75  48  38 NW8       30.09F
JACKSON        SUNNY     73  52  46 NW7       30.12S
LUVERNE        MOSUNNY   73  50  43 NW7       30.13S
MARSHALL       MOSUNNY   73  54  49 N9        30.10F
6HR MIN TEMP:  73; 6HR MAX TEMP:  75;

MONTEVIDEO     SUNNY     75  55  50 N9        30.11S
PIPESTONE      MOSUNNY   73  52  46 NW6       30.13F
REDWOOD FALLS  SUNNY     76  51  41 NW7       30.09S
TRACY          SUNNY     74  53  48 NW7       30.11F
WINDOM         SUNNY     73  54  49 NW8       30.11S
WORTHINGTON    SUNNY     70  55  60 NW5       30.14S
$$

IAZ001>003-012>014-020>022-031-032-NEZ013-014-SDZ071-300100-
NORTHWEST IOWA

CITY           SKY/WX    TMP DP  RH WIND       PRES   REMARKS
CHEROKEE       SUNNY     73  54  50 NW7       30.12S
DENISON        SUNNY     73  55  53 NW6       30.11S
ESTHERVILLE    SUNNY     73  53  49 NW8       30.10F
LE MARS        SUNNY     73  54  49 N7        30.13S
ORANGE CITY    SUNNY     73  54  49 NW3       30.13F
SHELDON        SUNNY     73  55  53 VRB5      30.12S
SIOUX CITY     SUNNY     77  53  43 N5        30.12F
6HR MIN TEMP:  73; 6HR MAX TEMP:  79;

SPENCER        PTSUNNY   72  56  57 NW8       30.12S
6HR MIN TEMP:  72; 6HR MAX TEMP:  76;

STORM LAKE     SUNNY     72  55  56 NW6       30.13S
$$

ABBREVIATIONS USED IN REMARKS
   TC - TEMPERATURE IN CELSIUS
  WCI - WIND CHILL INDEX
   HX - HEAT INDEX
  VSB - VISIBILITY



USA.gov is the U.S. government's official web portal to all federal, state and local government web resources and services.